This is the latest recevied weather packets stored in our database for station/object KC4JY. If no packets are shown the sender has not sent any weather packets the latest 10 day(s).
| Time | Temp. | Humidity | Pressure | Rain* | Wind** | Luminosity | Snow |
|---|---|---|---|---|---|---|---|
| 1777542336 | 16.11° C | 93% | 1007.8 hPa | 0 mm | - | - | - |
| 1777541448 | 16.11° C | 93% | 1007.7 hPa | 0 mm | - | - | - |
| 1777540534 | 16.11° C | 93% | 1007.5 hPa | 0 mm | - | - | - |
| 1777539636 | 16.11° C | 93% | 1007.5 hPa | 0 mm | - | - | - |
| 1777538732 | 16.11° C | 93% | 1007.5 hPa | 0 mm | - | - | - |
| 1777537831 | 16.67° C | 93% | 1007.6 hPa | 0 mm | - | - | - |
| 1777536930 | 16.67° C | 93% | 1007.7 hPa | 0 mm | - | - | - |
| 1777536033 | 16.67° C | 92% | 1007.3 hPa | 0 mm | - | - | - |
| 1777535144 | 16.67° C | 92% | 1007.3 hPa | 0 mm | - | - | - |
| 1777534208 | 17.22° C | 92% | 1007.8 hPa | 0 mm | - | - | - |
| 1777533307 | 17.22° C | 92% | 1007.8 hPa | 0.25 mm | - | - | - |
| 1777532448 | 17.22° C | 92% | 1007.9 hPa | 1.78 mm | - | - | - |
| 1777531550 | 17.22° C | 91% | 1008.2 hPa | 4.83 mm | - | - | - |
| 1777530638 | 17.78° C | 91% | 1008.3 hPa | 5.59 mm | - | - | - |
| 1777529728 | 17.78° C | 90% | 1008.5 hPa | 5.33 mm | - | - | - |
| 1777528808 | 17.78° C | 89% | 1009.1 hPa | 3.81 mm | - | - | - |
| 1777527903 | 19.44° C | 85% | 1009.3 hPa | 0.25 mm | - | - | - |
| 1777527043 | 18.33° C | 90% | 1008.6 hPa | 0 mm | - | - | - |
| 1777526140 | 18.89° C | 90% | 1007.7 hPa | 0 mm | - | - | - |
| 1777525233 | 18.89° C | 89% | 1007.7 hPa | 0 mm | - | - | - |
| 1777524323 | 18.89° C | 89% | 1007.7 hPa | 0 mm | - | - | - |
| 1777523404 | 18.89° C | 89% | 1007.7 hPa | 0 mm | - | - | - |
| 1777522568 | 18.89° C | 89% | 1007.7 hPa | 0 mm | - | - | - |
| 1777521702 | 19.44° C | 88% | 1007.8 hPa | 0 mm | - | - | - |
| 1777520741 | 19.44° C | 88% | 1007.9 hPa | 0 mm | - | - | - |
* Rain latest hour (hover to see other rain measurements)
** Current wind speed in m/s (hover to see current wind gust speed)